Regional Weather Roundup
Issued by NWS

Home | Current Version | Previous Version | Graphics & Text | Print | Product List | Glossary On
Versions: 1 2 3 4 5 6 7 8 9 10 11 12 13 14 15 16 17 18 19 20 21 22 23 24 25 26 27 28 29 30 31 32 33 34 35 36 37 38 39 40 41 42 43 44 45 46 47 48 49 50
429
ASUS43 KDMX 260706
RWRIA

WEATHER ROUNDUP FOR IOWA
NATIONAL WEATHER SERVICE DES MOINES IA
200 AM CDT FRI MAY 26 2017

NOTE: "FAIR" INDICATES FEW OR NO CLOUDS BELOW 12,000 FEET WITH NO
SIGNIFICANT WEATHER AND/OR OBSTRUCTIONS TO VISIBILITY.

* - THESE STATIONS ARE NOT NWS STATIONS...THUS NOT UNDER NWS
QUALITY CONTROL.  THEY ALSO DO NOT REPORT WEATHER SUCH
AS PRECIPITATION OR FOG.

IAZ001>003-012>014-020>022-031>034-043>046-260800-
   NORTHWEST IOWA

CITY           SKY/WX    TMP DP  RH WIND       PRES   REMARKS
CARROLL *      CLOUDY    61  55  82 SE5       29.68F
CHEROKEE *     CLOUDY    60  55  82 S5        29.68R
DENISON *      CLOUDY    64  54  68 S13       29.68S
LE MARS *      CLOUDY    61  54  77 S6        29.66F
ORANGE CITY *  CLOUDY    61  55  82 S5        29.67S
SHELDON *      CLOUDY    61  52  72 S12       29.65F
SIOUX CITY     CLOUDY    60  56  86 E7        29.65S
SPENCER        CLOUDY    60  52  74 SE8       29.68S
STORM LAKE *   MOCLDY    59  52  77 S10       29.69S
$$

IAZ055>058-069>071-079>083-090>094-260800-
   SOUTHWEST IOWA

CITY           SKY/WX    TMP DP  RH WIND       PRES   REMARKS
ATLANTIC *     CLOUDY    63  54  72 S6        29.68S
AUDUBON *      CLOUDY    57  54  88 CALM      29.69F
CLARINDA *     CLOUDY    64  55  72 S5        29.70S
COUNCIL BLFS * CLOUDY    64  57  77 SE8       29.66S
CRESTON *      CLOUDY    61  54  77 S7        29.71S
HARLAN  *      CLOUDY    63  55  77 S5        29.70F
LAMONI         CLOUDY    61  53  75 SE5       29.69F
RED OAK *      CLOUDY    64  55  72 S7        29.67F
SHENANDOAH *   CLOUDY    66  55  68 SE7       29.66F
$$

IAZ047>049-059>061-072>074-084-260800-
   CENTRAL IOWA

CITY           SKY/WX    TMP DP  RH WIND       PRES   REMARKS
AMES           MOCLDY    56  53  90 SE3       29.72R
ANKENY *       CLOUDY    57  52  82 CALM      29.72S
BOONE *        PTCLDY    57  55  94 SE5       29.71F
CHARITON *     CLOUDY    63  52  67 SE10      29.70F
DES MOINES     CLOUDY    63  52  67 E5        29.70F
GRINNELL*      CLOUDY    59  51  74 E5        29.76R
KNOXVILLE *    MOCLDY    63  52  67 CALM      29.70S
MARSHALLTOWN   MOCLDY    56  51  84 E7        29.73R
NEWTON *       PTCLDY    61  52  72 E7        29.72S
PELLA *        CLOUDY    63  51  66 SE3       29.73S
PERRY *          N/A     59  54  83 E7        29.70F
$$

IAZ004>006-015-016-023>025-035-036-260800-
   NORTH CENTRAL IOWA

CITY           SKY/WX    TMP DP  RH WIND       PRES   REMARKS
ALGONA *       CLEAR     61  52  72 SE12      29.70S
CLARION *      CLEAR     59  52  77 SE12      29.72R
ESTHERVILLE    CLOUDY    58  52  80 S12       29.68S
FORT DODGE *   CLEAR     61  52  72 SE7       29.71F
MASON CITY     CLEAR     56  49  77 S9        29.74R
FOREST CITY *    N/A     54  45  71 SE8       29.72R
WEBSTER CITY * CLEAR     55  50  82 E6        29.70S
IOWA FALLS *     N/A     56  51  84 SE8       29.74F
$$

IAZ007>011-017>019-026>030-037>042-050>054-066-260800-
   NORTHEAST IOWA

CITY           SKY/WX    TMP DP  RH WIND       PRES   REMARKS
CEDAR RAPIDS   CLOUDY    57  53  86 E5        29.75R
CHARLES CITY * CLOUDY    59  52  77 SE8       29.75R
CLINTON *      CLOUDY    58  55  90 CALM      29.79R
DECORAH *      CLOUDY    59  54  82 S5        29.74S
DUBUQUE        CLOUDY    57  53  86 S3        29.78S
MONTICELLO *   CLOUDY    61  55  82 E6        29.76S
OELWEIN *      PTCLDY    57  55  94 SE8       29.76S
WATERLOO       PTCLDY    56  51  84 SE3       29.75R
$$

IAZ064-065-067-068-078-260800-
   EAST CENTRAL IOWA

CITY           SKY/WX    TMP DP  RH WIND       PRES   REMARKS
DAVENPORT      MOCLDY    57  53  86 E7        29.77S
IOWA CITY      CLOUDY    62  53  72 CALM      29.76F
MT. PLEASANT * CLOUDY    59  53  79 SE3       29.75S
MUSCATINE *    PTCLDY    59  55  88 SE5       29.75F
QUAD CITIES    MOCLDY    59  54  83 E6        29.76S
$$

IAZ062-063-075>077-085>089-095>099-260800-
   SOUTHEAST IOWA

CITY           SKY/WX    TMP DP  RH WIND       PRES   REMARKS
BURLINGTON     CLOUDY    62  54  74 SE8       29.75F
FAIRFIELD *    CLOUDY    61  52  72 SE9       29.73F
FORT MADISON * CLOUDY    63  55  77 S6        29.76F
KEOKUK *       CLOUDY    59  55  88 E5        29.75S
OSKALOOSA *      N/A     61  52  72 SE8       29.72R
CENTERVILLE *    N/A     59  54  82 CALM      29.73F
OTTUMWA        CLOUDY    61  53  75 S9        29.71F
WASHINGTON *   PTCLDY    61  54  77 E8        29.75F
$$

ABBREVIATIONS USED IN REMARKS
   TC - TEMPERATURES IN CELSIUS
  WCI - WIND CHILL INDEX
   HX - HEAT INDEX
  VSB - VISIBILITY
$$





USA.gov is the U.S. government's official web portal to all federal, state and local government web resources and services.